Time,TemperatureF,DewpointF,PressureIn,WindDirection,WindDirectionDegrees,WindSpeedMPH,WindSpeedGustMPH,Humidity,HourlyPrecipIn,Conditions,Clouds,dailyrainin,SoftwareType,DateUTC
2013-03-26 00:14:00,44.0,42.0,29.99,ESE,103,0.0,0.0,94,0.00,,,0.00,weatherlink.com 1.10,2013-03-26 07:14:00,
2013-03-26 00:29:00,43.6,42.0,29.99,ESE,103,0.0,0.0,94,0.00,,,0.00,weatherlink.com 1.10,2013-03-26 07:29:00,
2013-03-26 00:44:00,43.1,42.0,29.99,SSE,159,0.0,0.0,95,0.00,,,0.00,weatherlink.com 1.10,2013-03-26 07:44:00,
2013-03-26 00:59:00,43.4,42.0,29.99,ESE,115,0.0,0.0,95,0.00,,,0.00,weatherlink.com 1.10,2013-03-26 07:59:00,
2013-03-26 01:14:00,43.2,42.0,29.98,WSW,243,0.0,0.0,95,0.00,,,0.00,weatherlink.com 1.10,2013-03-26 08:14:00,
2013-03-26 01:29:00,42.5,41.0,29.98,SE,124,0.0,0.0,95,0.00,,,0.00,weatherlink.com 1.10,2013-03-26 08:29:00,
2013-03-26 01:44:00,42.5,42.0,29.99,SE,135,0.0,0.0,96,0.00,,,0.00,weatherlink.com 1.10,2013-03-26 08:44:00,
2013-03-26 01:59:00,42.8,42.0,29.99,East,98,0.0,0.0,96,0.00,,,0.00,weatherlink.com 1.10,2013-03-26 08:59:00,
2013-03-26 02:14:00,42.3,41.0,29.99,East,98,0.0,0.0,96,0.00,,,0.00,weatherlink.com 1.10,2013-03-26 09:14:00,
2013-03-26 02:29:00,42.2,41.0,29.98,East,98,0.0,0.0,96,0.00,,,0.00,weatherlink.com 1.10,2013-03-26 09:29:00,
2013-03-26 02:44:00,42.4,42.0,29.98,East,98,0.0,0.0,97,0.00,,,0.00,weatherlink.com 1.10,2013-03-26 09:44:00,
2013-03-26 02:59:00,41.8,41.0,29.98,East,97,0.0,0.0,96,0.00,,,0.00,weatherlink.com 1.10,2013-03-26 09:59:00,
2013-03-26 03:14:00,41.4,41.0,29.98,East,98,0.0,0.0,97,0.00,,,0.00,weatherlink.com 1.10,2013-03-26 10:14:00,
2013-03-26 03:29:00,41.1,40.0,29.97,East,97,0.0,0.0,97,0.00,,,0.00,weatherlink.com 1.10,2013-03-26 10:29:00,
2013-03-26 03:44:00,41.0,40.0,29.97,East,97,0.0,0.0,97,0.00,,,0.00,weatherlink.com 1.10,2013-03-26 10:44:00,
2013-03-26 03:59:00,41.3,41.0,29.97,NNE,13,0.0,0.0,97,0.00,,,0.00,weatherlink.com 1.10,2013-03-26 10:59:00,
2013-03-26 04:14:00,41.3,41.0,29.97,NE,41,0.0,0.0,97,0.00,,,0.00,weatherlink.com 1.10,2013-03-26 11:14:00,
2013-03-26 04:29:00,40.9,40.0,29.97,SE,132,0.0,0.0,97,0.00,,,0.00,weatherlink.com 1.10,2013-03-26 11:29:00,
2013-03-26 04:44:00,41.2,41.0,29.97,West,280,0.0,0.0,98,0.00,,,0.00,weatherlink.com 1.10,2013-03-26 11:44:00,
2013-03-26 04:59:00,41.4,41.0,29.98,SW,231,2.0,3.0,98,0.00,,,0.00,weatherlink.com 1.10,2013-03-26 11:59:00,
2013-03-26 05:14:00,41.8,41.0,29.98,SSW,211,0.0,2.0,98,0.00,,,0.00,weatherlink.com 1.10,2013-03-26 12:14:00,
2013-03-26 05:29:00,42.3,42.0,29.97,SW,235,0.0,0.0,98,0.00,,,0.00,weatherlink.com 1.10,2013-03-26 12:29:00,
2013-03-26 05:44:00,42.4,42.0,29.98,South,183,0.0,0.0,98,0.00,,,0.00,weatherlink.com 1.10,2013-03-26 12:44:00,
2013-03-26 05:59:00,42.2,42.0,29.98,SE,132,0.0,0.0,98,0.00,,,0.00,weatherlink.com 1.10,2013-03-26 12:59:00,
2013-03-26 06:14:00,42.0,42.0,29.98,SE,131,0.0,0.0,98,0.00,,,0.00,weatherlink.com 1.10,2013-03-26 13:14:00,
2013-03-26 06:29:00,42.1,42.0,29.98,SE,131,0.0,0.0,98,0.00,,,0.00,weatherlink.com 1.10,2013-03-26 13:29:00,
2013-03-26 06:44:00,42.0,42.0,29.98,NNE,27,0.0,0.0,98,0.00,,,0.00,weatherlink.com 1.10,2013-03-26 13:44:00,
2013-03-26 06:59:00,41.9,41.0,29.98,NE,40,0.0,0.0,98,0.00,,,0.00,weatherlink.com 1.10,2013-03-26 13:59:00,
2013-03-26 07:14:00,42.0,42.0,29.98,NE,39,0.0,0.0,99,0.00,,,0.00,weatherlink.com 1.10,2013-03-26 14:14:00,
2013-03-26 07:29:00,42.3,42.0,29.98,SSW,207,0.0,2.0,99,0.00,,,0.00,weatherlink.com 1.10,2013-03-26 14:29:00,
2013-03-26 07:44:00,42.6,42.0,29.99,South,173,0.0,0.0,99,0.00,,,0.00,weatherlink.com 1.10,2013-03-26 14:44:00,
2013-03-26 07:59:00,42.8,43.0,29.99,SW,231,0.0,0.0,99,0.00,,,0.00,weatherlink.com 1.10,2013-03-26 14:59:00,
2013-03-26 08:14:00,43.8,44.0,29.99,SW,226,0.0,0.0,99,0.00,,,0.00,weatherlink.com 1.10,2013-03-26 15:14:00,
2013-03-26 08:29:00,45.2,45.0,29.99,SSE,162,0.0,0.0,99,0.00,,,0.00,weatherlink.com 1.10,2013-03-26 15:29:00,
2013-03-26 08:44:00,45.8,45.0,29.99,North,352,2.0,2.0,98,0.00,,,0.00,weatherlink.com 1.10,2013-03-26 15:44:00,
2013-03-26 09:15:00,47.0,46.0,30.00,NE,42,0.0,3.0,95,0.00,,,0.00,weatherlink.com 1.10,2013-03-26 16:15:00,
2013-03-26 09:30:00,49.1,46.0,30.00,WSW,246,0.0,0.0,90,0.00,,,0.00,weatherlink.com 1.10,2013-03-26 16:30:00,
2013-03-26 09:44:00,51.3,46.0,30.00,North,360,0.0,0.0,82,0.00,,,0.00,weatherlink.com 1.10,2013-03-26 16:44:00,
2013-03-26 10:00:00,53.2,47.0,30.00,SSW,205,0.0,4.0,80,0.00,,,0.00,weatherlink.com 1.10,2013-03-26 17:00:00,
2013-03-26 10:15:00,52.9,47.0,30.00,SW,236,5.0,7.0,80,0.00,,,0.00,weatherlink.com 1.10,2013-03-26 17:15:00,
2013-03-26 10:30:00,53.2,47.0,30.00,ESE,104,1.0,5.0,78,0.00,,,0.00,weatherlink.com 1.10,2013-03-26 17:30:00,
2013-03-26 10:45:00,54.1,48.0,30.00,SW,231,3.0,3.0,79,0.00,,,0.00,weatherlink.com 1.10,2013-03-26 17:45:00,
2013-03-26 11:00:00,55.0,47.0,30.00,WNW,290,1.0,3.0,75,0.00,,,0.00,weatherlink.com 1.10,2013-03-26 18:00:00,
2013-03-26 11:15:00,56.1,48.0,30.00,South,172,1.0,4.0,73,0.00,,,0.00,weatherlink.com 1.10,2013-03-26 18:15:00,
2013-03-26 11:30:00,57.1,48.0,30.00,South,176,1.0,5.0,71,0.00,,,0.00,weatherlink.com 1.10,2013-03-26 18:30:00,
2013-03-26 11:45:00,57.7,49.0,29.99,SW,232,4.0,5.0,73,0.00,,,0.00,weatherlink.com 1.10,2013-03-26 18:45:00,
2013-03-26 12:00:00,58.9,49.0,30.00,SW,214,5.0,8.0,71,0.00,,,0.00,weatherlink.com 1.10,2013-03-26 19:00:00,
2013-03-26 12:16:00,59.3,49.0,30.00,SSE,159,3.0,7.0,69,0.00,,,0.00,weatherlink.com 1.10,2013-03-26 19:16:00,
2013-03-26 12:30:00,60.6,50.0,29.99,SSE,150,3.0,7.0,67,0.00,,,0.00,weatherlink.com 1.10,2013-03-26 19:30:00,
2013-03-26 12:45:00,60.7,49.0,29.99,SW,226,5.0,8.0,66,0.00,,,0.00,weatherlink.com 1.10,2013-03-26 19:45:00,
2013-03-26 13:00:00,61.4,49.0,29.99,SW,231,6.0,7.0,65,0.00,,,0.00,weatherlink.com 1.10,2013-03-26 20:00:00,
2013-03-26 13:15:00,61.9,48.0,29.98,South,181,5.0,7.0,61,0.00,,,0.00,weatherlink.com 1.10,2013-03-26 20:15:00,
2013-03-26 13:30:00,63.0,49.0,29.98,WSW,248,3.0,8.0,60,0.00,,,0.00,weatherlink.com 1.10,2013-03-26 20:30:00,
2013-03-26 13:45:00,63.5,51.0,29.98,SSE,158,8.0,9.0,63,0.00,,,0.00,weatherlink.com 1.10,2013-03-26 20:45:00,
2013-03-26 14:00:00,64.2,53.0,29.97,SW,214,5.0,11.0,66,0.00,,,0.00,weatherlink.com 1.10,2013-03-26 21:00:00,
2013-03-26 14:15:00,62.5,51.0,29.97,SW,217,2.0,11.0,66,0.00,,,0.00,weatherlink.com 1.10,2013-03-26 21:15:00,
2013-03-26 14:30:00,62.2,50.0,29.96,SSW,204,6.0,11.0,64,0.00,,,0.00,weatherlink.com 1.10,2013-03-26 21:30:00,
2013-03-26 14:45:00,62.4,49.0,29.96,South,181,4.0,11.0,62,0.00,,,0.00,weatherlink.com 1.10,2013-03-26 21:45:00,
2013-03-26 15:01:00,62.6,50.0,29.96,WSW,242,5.0,10.0,64,0.00,,,0.00,weatherlink.com 1.10,2013-03-26 22:01:00,
2013-03-26 15:16:00,62.0,49.0,29.96,SW,220,9.0,12.0,63,0.00,,,0.00,weatherlink.com 1.10,2013-03-26 22:16:00,
2013-03-26 15:30:00,62.1,49.0,29.96,SSW,201,4.0,13.0,63,0.00,,,0.00,weatherlink.com 1.10,2013-03-26 22:30:00,
2013-03-26 15:46:00,62.1,49.0,29.95,SE,143,4.0,13.0,63,0.00,,,0.00,weatherlink.com 1.10,2013-03-26 22:46:00,
2013-03-26 16:01:00,62.2,49.0,29.95,SW,224,10.0,12.0,62,0.00,,,0.00,weatherlink.com 1.10,2013-03-26 23:01:00,
2013-03-26 16:16:00,61.9,50.0,29.95,SW,228,9.0,12.0,65,0.00,,,0.00,weatherlink.com 1.10,2013-03-26 23:16:00,
2013-03-26 16:31:00,61.5,50.0,29.95,SSW,207,7.0,15.0,65,0.00,,,0.00,weatherlink.com 1.10,2013-03-26 23:31:00,
2013-03-26 16:46:00,61.1,49.0,29.95,SSW,204,9.0,14.0,64,0.00,,,0.00,weatherlink.com 1.10,2013-03-26 23:46:00,
2013-03-26 17:01:00,60.3,49.0,29.94,SW,226,4.0,13.0,66,0.00,,,0.00,weatherlink.com 1.10,2013-03-27 00:01:00,
2013-03-26 17:16:00,59.9,49.0,29.94,WSW,238,6.0,14.0,67,0.00,,,0.00,weatherlink.com 1.10,2013-03-27 00:16:00,
2013-03-26 17:31:00,59.1,49.0,29.94,SSE,168,8.0,14.0,69,0.00,,,0.00,weatherlink.com 1.10,2013-03-27 00:31:00,
2013-03-26 17:47:00,58.5,49.0,29.94,WSW,243,7.0,16.0,70,0.00,,,0.00,weatherlink.com 1.10,2013-03-27 00:47:00,
2013-03-26 18:01:00,57.8,49.0,29.94,SW,236,8.0,12.0,72,0.00,,,0.00,weatherlink.com 1.10,2013-03-27 01:01:00,
2013-03-26 18:16:00,57.2,49.0,29.94,SE,139,2.0,12.0,74,0.00,,,0.00,weatherlink.com 1.10,2013-03-27 01:16:00,
2013-03-26 18:31:00,56.4,49.0,29.94,WSW,250,9.0,12.0,75,0.00,,,0.00,weatherlink.com 1.10,2013-03-27 01:31:00,
2013-03-26 19:16:00,53.9,48.0,29.95,South,188,7.0,12.0,79,0.00,,,0.00,weatherlink.com 1.10,2013-03-27 02:16:00,
2013-03-26 19:31:00,52.3,47.0,29.95,South,174,6.0,9.0,82,0.00,,,0.00,weatherlink.com 1.10,2013-03-27 02:31:00,
2013-03-26 21:16:00,48.9,46.0,29.97,SW,219,0.0,3.0,89,0.00,,,0.00,weatherlink.com 1.10,2013-03-27 04:16:00,
2013-03-26 21:31:00,48.8,46.0,29.97,SSW,195,3.0,5.0,90,0.00,,,0.00,weatherlink.com 1.10,2013-03-27 04:31:00,
2013-03-26 21:46:00,48.7,46.0,29.98,ESE,117,0.0,3.0,90,0.00,,,0.00,weatherlink.com 1.10,2013-03-27 04:46:00,
2013-03-26 22:16:00,48.0,46.0,29.98,East,80,0.0,0.0,91,0.00,,,0.00,weatherlink.com 1.10,2013-03-27 05:16:00,
2013-03-26 22:31:00,47.5,45.0,29.97,ENE,75,0.0,0.0,91,0.00,,,0.00,weatherlink.com 1.10,2013-03-27 05:31:00,
2013-03-26 22:46:00,47.3,45.0,29.97,ENE,75,0.0,0.0,91,0.00,,,0.00,weatherlink.com 1.10,2013-03-27 05:46:00,
2013-03-26 23:01:00,46.7,44.0,29.97,SSW,195,0.0,0.0,91,0.00,,,0.00,weatherlink.com 1.10,2013-03-27 06:01:00,
2013-03-26 23:16:00,45.9,44.0,29.97,SSW,197,0.0,0.0,92,0.00,,,0.00,weatherlink.com 1.10,2013-03-27 06:16:00,
2013-03-26 23:31:00,45.9,44.0,29.97,SSE,162,0.0,0.0,93,0.00,,,0.00,weatherlink.com 1.10,2013-03-27 06:31:00,
2013-03-26 23:46:00,45.9,44.0,29.97,SE,136,0.0,0.0,93,0.00,,,0.00,weatherlink.com 1.10,2013-03-27 06:46:00,